owner,sensor,date,latitude,longitude,vertical_datum,sea_water_practical_salinity,qcFlag 
NERRS,ioos:station:NOAA.NERRS:apaebwq:1,2015-04-01T00:45:00Z,29.7858,-84.8752,1.75,2.9,1111122 
NERRS,ioos:station:NOAA.NERRS:apaebwq:1,2015-04-01T01:45:00Z,29.7858,-84.8752,1.75,2.9,1111122 
NERRS,ioos:station:NOAA.NERRS:apaebwq:1,2015-04-01T02:45:00Z,29.7858,-84.8752,1.79,3.0,1111122 
NERRS,ioos:station:NOAA.NERRS:apaebwq:1,2015-04-01T03:45:00Z,29.7858,-84.8752,1.86,2.9,1111122 
NERRS,ioos:station:NOAA.NERRS:apaebwq:1,2015-04-01T04:45:00Z,29.7858,-84.8752,1.95,2.9,1111122 
NERRS,ioos:station:NOAA.NERRS:apaebwq:1,2015-04-01T06:45:00Z,29.7858,-84.8752,2.04,2.8,1111122 
NERRS,ioos:station:NOAA.NERRS:apaebwq:1,2015-04-01T07:45:00Z,29.7858,-84.8752,2.02,2.8,1111122 
NERRS,ioos:station:NOAA.NERRS:apaebwq:1,2015-04-01T09:45:00Z,29.7858,-84.8752,1.89,2.7,1111122 
NERRS,ioos:station:NOAA.NERRS:apaebwq:1,2015-04-01T10:45:00Z,29.7858,-84.8752,1.81,2.8,1111122 
NERRS,ioos:station:NOAA.NERRS:apaebwq:1,2015-04-01T11:45:00Z,29.7858,-84.8752,1.73,2.9,1111122 
NERRS,ioos:station:NOAA.NERRS:apaebwq:1,2015-04-01T12:45:00Z,29.7858,-84.8752,1.68,2.9,1111122 
NERRS,ioos:station:NOAA.NERRS:apaebwq:1,2015-04-01T13:45:00Z,29.7858,-84.8752,1.67,2.9,1111122 
NERRS,ioos:station:NOAA.NERRS:apaebwq:1,2015-04-01T14:45:00Z,29.7858,-84.8752,1.71,2.8,1111122 
NERRS,ioos:station:NOAA.NERRS:apaebwq:1,2015-04-01T15:45:00Z,29.7858,-84.8752,1.79,2.8,1111122 
NERRS,ioos:station:NOAA.NERRS:apaebwq:1,2015-04-01T16:45:00Z,29.7858,-84.8752,1.87,2.9,1111122 
NERRS,ioos:station:NOAA.NERRS:apaebwq:1,2015-04-01T17:45:00Z,29.7858,-84.8752,1.98,2.7,1111122 
NERRS,ioos:station:NOAA.NERRS:apaebwq:1,2015-04-01T18:45:00Z,29.7858,-84.8752,2.09,2.7,1111122 
NERRS,ioos:station:NOAA.NERRS:apaebwq:1,2015-04-01T19:45:00Z,29.7858,-84.8752,2.14,2.6,1111122 
NERRS,ioos:station:NOAA.NERRS:apaebwq:1,2015-04-01T20:45:00Z,29.7858,-84.8752,2.06,2.7,1111122 
NERRS,ioos:station:NOAA.NERRS:apaebwq:1,2015-04-01T21:45:00Z,29.7858,-84.8752,1.97,2.6,1111122 
NERRS,ioos:station:NOAA.NERRS:apaebwq:1,2015-04-01T22:45:00Z,29.7858,-84.8752,1.88,2.9,1111122 
NERRS,ioos:station:NOAA.NERRS:apaebwq:1,2015-04-02T00:45:00Z,29.7858,-84.8752,1.73,2.8,1111122 
NERRS,ioos:station:NOAA.NERRS:apaebwq:1,2015-04-02T01:45:00Z,29.7858,-84.8752,1.71,2.9,1111122 
NERRS,ioos:station:NOAA.NERRS:apaebwq:1,2015-04-02T02:45:00Z,29.7858,-84.8752,1.73,2.9,1111122 
NERRS,ioos:station:NOAA.NERRS:apaebwq:1,2015-04-02T03:45:00Z,29.7858,-84.8752,1.77,2.8,1111122 
NERRS,ioos:station:NOAA.NERRS:apaebwq:1,2015-04-02T04:45:00Z,29.7858,-84.8752,1.85,2.9,1111122 
NERRS,ioos:station:NOAA.NERRS:apaebwq:1,2015-04-02T05:45:00Z,29.7858,-84.8752,1.94,2.9,1111122 
NERRS,ioos:station:NOAA.NERRS:apaebwq:1,2015-04-02T07:45:00Z,29.7858,-84.8752,2.03,2.8,1111122 
NERRS,ioos:station:NOAA.NERRS:apaebwq:1,2015-04-02T09:45:00Z,29.7858,-84.8752,1.96,2.8,1111122 
NERRS,ioos:station:NOAA.NERRS:apaebwq:1,2015-04-02T10:45:00Z,29.7858,-84.8752,1.88,2.7,1111122 
NERRS,ioos:station:NOAA.NERRS:apaebwq:1,2015-04-02T12:45:00Z,29.7858,-84.8752,1.73,2.8,1111122 
NERRS,ioos:station:NOAA.NERRS:apaebwq:1,2015-04-02T13:45:00Z,29.7858,-84.8752,1.69,2.9,1111122 
NERRS,ioos:station:NOAA.NERRS:apaebwq:1,2015-04-02T14:45:00Z,29.7858,-84.8752,1.69,2.8,1111122 
NERRS,ioos:station:NOAA.NERRS:apaebwq:1,2015-04-02T15:45:00Z,29.7858,-84.8752,1.74,2.8,1111122 
NERRS,ioos:station:NOAA.NERRS:apaebwq:1,2015-04-02T16:45:00Z,29.7858,-84.8752,1.86,2.7,1111122 
NERRS,ioos:station:NOAA.NERRS:apaebwq:1,2015-04-02T17:45:00Z,29.7858,-84.8752,1.98,2.5,1111122 
NERRS,ioos:station:NOAA.NERRS:apaebwq:1,2015-04-02T18:45:00Z,29.7858,-84.8752,2.08,2.4,1111122 
NERRS,ioos:station:NOAA.NERRS:apaebwq:1,2015-04-02T19:45:00Z,29.7858,-84.8752,2.15,2.3,1111122 
NERRS,ioos:station:NOAA.NERRS:apaebwq:1,2015-04-02T20:45:00Z,29.7858,-84.8752,2.13,2.3,1111122 
NERRS,ioos:station:NOAA.NERRS:apaebwq:1,2015-04-02T21:45:00Z,29.7858,-84.8752,2.03,2.5,1111122 
NERRS,ioos:station:NOAA.NERRS:apaebwq:1,2015-04-02T22:45:00Z,29.7858,-84.8752,1.94,2.6,1111122 
NERRS,ioos:station:NOAA.NERRS:apaebwq:1,2015-04-02T23:45:00Z,29.7858,-84.8752,1.84,2.6,1111122 
NERRS,ioos:station:NOAA.NERRS:apaebwq:1,2015-04-03T00:45:00Z,29.7858,-84.8752,1.76,2.6,1111122 
NERRS,ioos:station:NOAA.NERRS:apaebwq:1,2015-04-03T01:45:00Z,29.7858,-84.8752,1.69,2.7,1111122 
NERRS,ioos:station:NOAA.NERRS:apaebwq:1,2015-04-03T02:45:00Z,29.7858,-84.8752,1.65,2.7,1111122 
NERRS,ioos:station:NOAA.NERRS:apaebwq:1,2015-04-03T03:45:00Z,29.7858,-84.8752,1.67,2.8,1111122 
NERRS,ioos:station:NOAA.NERRS:apaebwq:1,2015-04-03T04:45:00Z,29.7858,-84.8752,1.77,2.6,1111122 
NERRS,ioos:station:NOAA.NERRS:apaebwq:1,2015-04-03T05:45:00Z,29.7858,-84.8752,1.89,2.3,1111122 
NERRS,ioos:station:NOAA.NERRS:apaebwq:1,2015-04-03T06:45:00Z,29.7858,-84.8752,2.0,2.4,1111122 
NERRS,ioos:station:NOAA.NERRS:apaebwq:1,2015-04-03T07:45:00Z,29.7858,-84.8752,2.06,2.4,1111122 
NERRS,ioos:station:NOAA.NERRS:apaebwq:1,2015-04-03T09:45:00Z,29.7858,-84.8752,2.02,2.5,1111122 
NERRS,ioos:station:NOAA.NERRS:apaebwq:1,2015-04-03T10:45:00Z,29.7858,-84.8752,1.93,2.6,1111122 
NERRS,ioos:station:NOAA.NERRS:apaebwq:1,2015-04-03T11:45:00Z,29.7858,-84.8752,1.84,2.5,1111122 
NERRS,ioos:station:NOAA.NERRS:apaebwq:1,2015-04-03T12:45:00Z,29.7858,-84.8752,1.76,2.5,1111122 
NERRS,ioos:station:NOAA.NERRS:apaebwq:1,2015-04-03T13:45:00Z,29.7858,-84.8752,1.71,2.6,1111122 
NERRS,ioos:station:NOAA.NERRS:apaebwq:1,2015-04-03T15:45:00Z,29.7858,-84.8752,1.7,2.6,1111122 
NERRS,ioos:station:NOAA.NERRS:apaebwq:1,2015-04-03T16:45:00Z,29.7858,-84.8752,1.79,2.6,1111122 
NERRS,ioos:station:NOAA.NERRS:apaebwq:1,2015-04-03T17:45:00Z,29.7858,-84.8752,1.93,2.5,1111122 
NERRS,ioos:station:NOAA.NERRS:apaebwq:1,2015-04-03T18:45:00Z,29.7858,-84.8752,2.04,2.5,1111122 
NERRS,ioos:station:NOAA.NERRS:apaebwq:1,2015-04-03T20:45:00Z,29.7858,-84.8752,2.14,2.2,1111122 
NERRS,ioos:station:NOAA.NERRS:apaebwq:1,2015-04-03T21:45:00Z,29.7858,-84.8752,2.09,2.3,1111122 
NERRS,ioos:station:NOAA.NERRS:apaebwq:1,2015-04-03T22:45:00Z,29.7858,-84.8752,2.0,2.7,1111122 
NERRS,ioos:station:NOAA.NERRS:apaebwq:1,2015-04-03T23:45:00Z,29.7858,-84.8752,1.9,2.6,1111122 
NERRS,ioos:station:NOAA.NERRS:apaebwq:1,2015-04-04T01:45:00Z,29.7858,-84.8752,1.74,2.5,1111122 
NERRS,ioos:station:NOAA.NERRS:apaebwq:1,2015-04-04T02:45:00Z,29.7858,-84.8752,1.7,2.5,1111122 
NERRS,ioos:station:NOAA.NERRS:apaebwq:1,2015-04-04T03:45:00Z,29.7858,-84.8752,1.71,2.5,1111122 
NERRS,ioos:station:NOAA.NERRS:apaebwq:1,2015-04-04T04:45:00Z,29.7858,-84.8752,1.77,2.4,1111122 
NERRS,ioos:station:NOAA.NERRS:apaebwq:1,2015-04-04T06:45:00Z,29.7858,-84.8752,1.97,2.2,1111122 
NERRS,ioos:station:NOAA.NERRS:apaebwq:1,2015-04-04T07:45:00Z,29.7858,-84.8752,2.07,2.4,1111122 
NERRS,ioos:station:NOAA.NERRS:apaebwq:1,2015-04-04T08:45:00Z,29.7858,-84.8752,2.13,2.3,1111122 
NERRS,ioos:station:NOAA.NERRS:apaebwq:1,2015-04-04T09:45:00Z,29.7858,-84.8752,2.13,2.2,1111122 
NERRS,ioos:station:NOAA.NERRS:apaebwq:1,2015-04-04T10:45:00Z,29.7858,-84.8752,2.06,2.1,1111122 
NERRS,ioos:station:NOAA.NERRS:apaebwq:1,2015-04-04T11:45:00Z,29.7858,-84.8752,1.96,2.5,1111122 
NERRS,ioos:station:NOAA.NERRS:apaebwq:1,2015-04-04T12:45:00Z,29.7858,-84.8752,1.86,2.7,1111122 
NERRS,ioos:station:NOAA.NERRS:apaebwq:1,2015-04-04T13:45:00Z,29.7858,-84.8752,1.79,2.7,1111122 
NERRS,ioos:station:NOAA.NERRS:apaebwq:1,2015-04-04T14:45:00Z,29.7858,-84.8752,1.76,2.6,1111122 
NERRS,ioos:station:NOAA.NERRS:apaebwq:1,2015-04-04T16:45:00Z,29.7858,-84.8752,1.82,2.4,1111122 
NERRS,ioos:station:NOAA.NERRS:apaebwq:1,2015-04-04T17:45:00Z,29.7858,-84.8752,1.91,2.5,1111122 
NERRS,ioos:station:NOAA.NERRS:apaebwq:1,2015-04-04T18:45:00Z,29.7858,-84.8752,1.97,2.5,1111122 
NERRS,ioos:station:NOAA.NERRS:apaebwq:1,2015-04-04T19:45:00Z,29.7858,-84.8752,2.04,2.6,1111122 
NERRS,ioos:station:NOAA.NERRS:apaebwq:1,2015-04-04T20:45:00Z,29.7858,-84.8752,2.05,2.6,1111122 
NERRS,ioos:station:NOAA.NERRS:apaebwq:1,2015-04-04T21:45:00Z,29.7858,-84.8752,2.01,2.5,1111122 
NERRS,ioos:station:NOAA.NERRS:apaebwq:1,2015-04-04T23:45:00Z,29.7858,-84.8752,1.84,2.5,1111122 
NERRS,ioos:station:NOAA.NERRS:apaebwq:1,2015-04-05T00:45:00Z,29.7858,-84.8752,1.76,2.4,1111122 
NERRS,ioos:station:NOAA.NERRS:apaebwq:1,2015-04-05T01:45:00Z,29.7858,-84.8752,1.67,2.4,1111122 
NERRS,ioos:station:NOAA.NERRS:apaebwq:1,2015-04-05T02:45:00Z,29.7858,-84.8752,1.59,2.5,1111122 
NERRS,ioos:station:NOAA.NERRS:apaebwq:1,2015-04-05T03:45:00Z,29.7858,-84.8752,1.52,2.7,1111122 
NERRS,ioos:station:NOAA.NERRS:apaebwq:1,2015-04-05T04:45:00Z,29.7858,-84.8752,1.47,2.7,1111122 
NERRS,ioos:station:NOAA.NERRS:apaebwq:1,2015-04-05T05:45:00Z,29.7858,-84.8752,1.53,2.7,1111122 
NERRS,ioos:station:NOAA.NERRS:apaebwq:1,2015-04-05T07:45:00Z,29.7858,-84.8752,1.8,2.2,1111122 
NERRS,ioos:station:NOAA.NERRS:apaebwq:1,2015-04-05T08:45:00Z,29.7858,-84.8752,1.91,2.5,1111122 
NERRS,ioos:station:NOAA.NERRS:apaebwq:1,2015-04-05T10:45:00Z,29.7858,-84.8752,1.97,2.2,1111122 
NERRS,ioos:station:NOAA.NERRS:apaebwq:1,2015-04-05T12:45:00Z,29.7858,-84.8752,1.89,2.4,1111122 
NERRS,ioos:station:NOAA.NERRS:apaebwq:1,2015-04-05T13:45:00Z,29.7858,-84.8752,1.84,2.5,1111122 
NERRS,ioos:station:NOAA.NERRS:apaebwq:1,2015-04-05T14:45:00Z,29.7858,-84.8752,1.78,2.5,1111122 
NERRS,ioos:station:NOAA.NERRS:apaebwq:1,2015-04-05T15:45:00Z,29.7858,-84.8752,1.76,2.5,1111122 
NERRS,ioos:station:NOAA.NERRS:apaebwq:1,2015-04-05T16:45:00Z,29.7858,-84.8752,1.81,2.5,1111122 
NERRS,ioos:station:NOAA.NERRS:apaebwq:1,2015-04-05T17:45:00Z,29.7858,-84.8752,1.89,2.4,1111122 
NERRS,ioos:station:NOAA.NERRS:apaebwq:1,2015-04-05T18:45:00Z,29.7858,-84.8752,1.98,2.0,1111122 
NERRS,ioos:station:NOAA.NERRS:apaebwq:1,2015-04-05T19:45:00Z,29.7858,-84.8752,2.04,2.2,1111122 
NERRS,ioos:station:NOAA.NERRS:apaebwq:1,2015-04-05T21:45:00Z,29.7858,-84.8752,2.09,2.3,1111122 
NERRS,ioos:station:NOAA.NERRS:apaebwq:1,2015-04-05T22:45:00Z,29.7858,-84.8752,2.03,2.2,1111122 
NERRS,ioos:station:NOAA.NERRS:apaebwq:1,2015-04-05T23:45:00Z,29.7858,-84.8752,1.94,2.2,1111122 
NERRS,ioos:station:NOAA.NERRS:apaebwq:1,2015-04-06T00:45:00Z,29.7858,-84.8752,1.84,2.2,1111122 
NERRS,ioos:station:NOAA.NERRS:apaebwq:1,2015-04-06T01:45:00Z,29.7858,-84.8752,1.73,2.4,1111122 
NERRS,ioos:station:NOAA.NERRS:apaebwq:1,2015-04-06T02:45:00Z,29.7858,-84.8752,1.65,2.5,1111122 
NERRS,ioos:station:NOAA.NERRS:apaebwq:1,2015-04-06T03:45:00Z,29.7858,-84.8752,1.58,2.5,1111122 
NERRS,ioos:station:NOAA.NERRS:apaebwq:1,2015-04-06T04:45:00Z,29.7858,-84.8752,1.54,2.7,1111122 
NERRS,ioos:station:NOAA.NERRS:apaebwq:1,2015-04-06T05:45:00Z,29.7858,-84.8752,1.56,2.7,1111122 
NERRS,ioos:station:NOAA.NERRS:apaebwq:1,2015-04-06T06:45:00Z,29.7858,-84.8752,1.69,2.5,1111122 
NERRS,ioos:station:NOAA.NERRS:apaebwq:1,2015-04-06T07:45:00Z,29.7858,-84.8752,1.84,3.0,1111122 
NERRS,ioos:station:NOAA.NERRS:apaebwq:1,2015-04-06T08:45:00Z,29.7858,-84.8752,1.96,3.3,1111122 
NERRS,ioos:station:NOAA.NERRS:apaebwq:1,2015-04-06T09:45:00Z,29.7858,-84.8752,2.03,3.4,1111122 
NERRS,ioos:station:NOAA.NERRS:apaebwq:1,2015-04-06T11:45:00Z,29.7858,-84.8752,2.01,3.5,1111122 
NERRS,ioos:station:NOAA.NERRS:apaebwq:1,2015-04-06T13:45:00Z,29.7858,-84.8752,1.9,3.0,1111122 
NERRS,ioos:station:NOAA.NERRS:apaebwq:1,2015-04-06T14:45:00Z,29.7858,-84.8752,1.85,5.6,1111122 
NERRS,ioos:station:NOAA.NERRS:apaebwq:1,2015-04-06T16:45:00Z,29.7858,-84.8752,1.87,10.9,1111122 
NERRS,ioos:station:NOAA.NERRS:apaebwq:1,2015-04-06T17:45:00Z,29.7858,-84.8752,1.94,11.8,1111122 
NERRS,ioos:station:NOAA.NERRS:apaebwq:1,2015-04-06T18:45:00Z,29.7858,-84.8752,2.03,12.0,1111122 
NERRS,ioos:station:NOAA.NERRS:apaebwq:1,2015-04-06T19:45:00Z,29.7858,-84.8752,2.12,12.0,1111122 
NERRS,ioos:station:NOAA.NERRS:apaebwq:1,2015-04-06T21:45:00Z,29.7858,-84.8752,2.18,12.3,1111122 
NERRS,ioos:station:NOAA.NERRS:apaebwq:1,2015-04-06T22:45:00Z,29.7858,-84.8752,2.11,12.2,1111122 
NERRS,ioos:station:NOAA.NERRS:apaebwq:1,2015-04-07T00:45:00Z,29.7858,-84.8752,1.88,12.1,1111122 
NERRS,ioos:station:NOAA.NERRS:apaebwq:1,2015-04-07T01:45:00Z,29.7858,-84.8752,1.78,12.1,1111122 
NERRS,ioos:station:NOAA.NERRS:apaebwq:1,2015-04-07T02:45:00Z,29.7858,-84.8752,1.7,12.1,1111122 
NERRS,ioos:station:NOAA.NERRS:apaebwq:1,2015-04-07T03:45:00Z,29.7858,-84.8752,1.63,12.1,1111122 
NERRS,ioos:station:NOAA.NERRS:apaebwq:1,2015-04-07T04:45:00Z,29.7858,-84.8752,1.59,12.1,1111122 
NERRS,ioos:station:NOAA.NERRS:apaebwq:1,2015-04-07T06:45:00Z,29.7858,-84.8752,1.65,12.1,1111122 
NERRS,ioos:station:NOAA.NERRS:apaebwq:1,2015-04-07T08:45:00Z,29.7858,-84.8752,1.94,9.7,1111122 
NERRS,ioos:station:NOAA.NERRS:apaebwq:1,2015-04-07T09:45:00Z,29.7858,-84.8752,2.04,9.8,1111122 
NERRS,ioos:station:NOAA.NERRS:apaebwq:1,2015-04-07T10:45:00Z,29.7858,-84.8752,2.09,10.2,1111122 
NERRS,ioos:station:NOAA.NERRS:apaebwq:1,2015-04-07T12:45:00Z,29.7858,-84.8752,2.03,10.6,1111122 
NERRS,ioos:station:NOAA.NERRS:apaebwq:1,2015-04-07T13:45:00Z,29.7858,-84.8752,1.94,10.5,1111122 
NERRS,ioos:station:NOAA.NERRS:apaebwq:1,2015-04-07T14:45:00Z,29.7858,-84.8752,1.89,10.5,1111122 
NERRS,ioos:station:NOAA.NERRS:apaebwq:1,2015-04-07T16:45:00Z,29.7858,-84.8752,1.86,10.2,1111122 
NERRS,ioos:station:NOAA.NERRS:apaebwq:1,2015-04-07T17:45:00Z,29.7858,-84.8752,1.9,10.2,1111122 
NERRS,ioos:station:NOAA.NERRS:apaebwq:1,2015-04-07T18:45:00Z,29.7858,-84.8752,1.97,10.1,1111122 
NERRS,ioos:station:NOAA.NERRS:apaebwq:1,2015-04-07T20:45:00Z,29.7858,-84.8752,2.15,10.1,1111122 
NERRS,ioos:station:NOAA.NERRS:apaebwq:1,2015-04-07T21:45:00Z,29.7858,-84.8752,2.18,9.9,1111122 
NERRS,ioos:station:NOAA.NERRS:apaebwq:1,2015-04-07T22:45:00Z,29.7858,-84.8752,2.12,9.8,1111122 
NERRS,ioos:station:NOAA.NERRS:apaebwq:1,2015-04-08T00:45:00Z,29.7858,-84.8752,1.88,9.3,1111122 
NERRS,ioos:station:NOAA.NERRS:apaebwq:1,2015-04-08T01:45:00Z,29.7858,-84.8752,1.76,9.4,1111122 
NERRS,ioos:station:NOAA.NERRS:apaebwq:1,2015-04-08T02:45:00Z,29.7858,-84.8752,1.66,9.4,1111122 
NERRS,ioos:station:NOAA.NERRS:apaebwq:1,2015-04-08T03:45:00Z,29.7858,-84.8752,1.57,9.5,1111122 
NERRS,ioos:station:NOAA.NERRS:apaebwq:1,2015-04-08T04:45:00Z,29.7858,-84.8752,1.5,9.4,1111122 
NERRS,ioos:station:NOAA.NERRS:apaebwq:1,2015-04-08T06:45:00Z,29.7858,-84.8752,1.52,9.1,1111122 
NERRS,ioos:station:NOAA.NERRS:apaebwq:1,2015-04-08T07:45:00Z,29.7858,-84.8752,1.66,6.2,1111122 
NERRS,ioos:station:NOAA.NERRS:apaebwq:1,2015-04-08T08:45:00Z,29.7858,-84.8752,1.82,4.2,1111122 
NERRS,ioos:station:NOAA.NERRS:apaebwq:1,2015-04-08T09:45:00Z,29.7858,-84.8752,1.95,5.0,1111122 
NERRS,ioos:station:NOAA.NERRS:apaebwq:1,2015-04-08T10:45:00Z,29.7858,-84.8752,2.04,4.4,1111122 
NERRS,ioos:station:NOAA.NERRS:apaebwq:1,2015-04-08T12:45:00Z,29.7858,-84.8752,2.05,5.1,1111122 
NERRS,ioos:station:NOAA.NERRS:apaebwq:1,2015-04-08T13:45:00Z,29.7858,-84.8752,2.01,5.1,1111122 
NERRS,ioos:station:NOAA.NERRS:apaebwq:1,2015-04-08T14:45:00Z,29.7858,-84.8752,1.93,5.2,1111122 
NERRS,ioos:station:NOAA.NERRS:apaebwq:1,2015-04-08T15:45:00Z,29.7858,-84.8752,1.87,5.2,1111122 
NERRS,ioos:station:NOAA.NERRS:apaebwq:1,2015-04-08T16:45:00Z,29.7858,-84.8752,1.86,5.2,1111122 
NERRS,ioos:station:NOAA.NERRS:apaebwq:1,2015-04-08T17:45:00Z,29.7858,-84.8752,1.87,5.2,1111122 
NERRS,ioos:station:NOAA.NERRS:apaebwq:1,2015-04-08T18:45:00Z,29.7858,-84.8752,1.94,5.2,1111122 
NERRS,ioos:station:NOAA.NERRS:apaebwq:1,2015-04-08T20:45:00Z,29.7858,-84.8752,2.16,4.3,1111122 
NERRS,ioos:station:NOAA.NERRS:apaebwq:1,2015-04-08T21:45:00Z,29.7858,-84.8752,2.2,4.4,1111122 
NERRS,ioos:station:NOAA.NERRS:apaebwq:1,2015-04-08T23:45:00Z,29.7858,-84.8752,2.1,4.5,1111122 
NERRS,ioos:station:NOAA.NERRS:apaebwq:1,2015-04-09T00:45:00Z,29.7858,-84.8752,2.0,4.3,1111122 
NERRS,ioos:station:NOAA.NERRS:apaebwq:1,2015-04-09T01:45:00Z,29.7858,-84.8752,1.88,4.0,1111122 
NERRS,ioos:station:NOAA.NERRS:apaebwq:1,2015-04-09T02:45:00Z,29.7858,-84.8752,1.77,3.8,1111122 
NERRS,ioos:station:NOAA.NERRS:apaebwq:1,2015-04-09T03:45:00Z,29.7858,-84.8752,1.68,3.7,1111122 
NERRS,ioos:station:NOAA.NERRS:apaebwq:1,2015-04-09T04:45:00Z,29.7858,-84.8752,1.6,3.6,1111122 
NERRS,ioos:station:NOAA.NERRS:apaebwq:1,2015-04-09T06:45:00Z,29.7858,-84.8752,1.52,3.5,1111122 
NERRS,ioos:station:NOAA.NERRS:apaebwq:1,2015-04-09T07:45:00Z,29.7858,-84.8752,1.58,3.3,1111122 
NERRS,ioos:station:NOAA.NERRS:apaebwq:1,2015-04-09T08:45:00Z,29.7858,-84.8752,1.71,3.7,1111122 
NERRS,ioos:station:NOAA.NERRS:apaebwq:1,2015-04-09T09:45:00Z,29.7858,-84.8752,1.85,3.6,1111122 
NERRS,ioos:station:NOAA.NERRS:apaebwq:1,2015-04-09T10:45:00Z,29.7858,-84.8752,1.98,3.7,1111122 
NERRS,ioos:station:NOAA.NERRS:apaebwq:1,2015-04-09T11:45:00Z,29.7858,-84.8752,2.05,3.7,1111122 
NERRS,ioos:station:NOAA.NERRS:apaebwq:1,2015-04-09T12:45:00Z,29.7858,-84.8752,2.09,3.7,1111122 
NERRS,ioos:station:NOAA.NERRS:apaebwq:1,2015-04-09T14:45:00Z,29.7858,-84.8752,2.05,3.8,1111122 
NERRS,ioos:station:NOAA.NERRS:apaebwq:1,2015-04-09T15:45:00Z,29.7858,-84.8752,1.97,3.8,1111122 
NERRS,ioos:station:NOAA.NERRS:apaebwq:1,2015-04-09T16:45:00Z,29.7858,-84.8752,1.93,3.8,1111122 
NERRS,ioos:station:NOAA.NERRS:apaebwq:1,2015-04-09T17:45:00Z,29.7858,-84.8752,1.95,3.7,1111122 
NERRS,ioos:station:NOAA.NERRS:apaebwq:1,2015-04-09T18:45:00Z,29.7858,-84.8752,2.0,3.7,1111122 
NERRS,ioos:station:NOAA.NERRS:apaebwq:1,2015-04-09T20:45:00Z,29.7858,-84.8752,2.13,3.8,1111122 
NERRS,ioos:station:NOAA.NERRS:apaebwq:1,2015-04-09T22:45:00Z,29.7858,-84.8752,2.19,3.8,1111122 
NERRS,ioos:station:NOAA.NERRS:apaebwq:1,2015-04-10T00:45:00Z,29.7858,-84.8752,2.05,3.6,1111122 
NERRS,ioos:station:NOAA.NERRS:apaebwq:1,2015-04-10T01:45:00Z,29.7858,-84.8752,1.94,3.5,1111122 
NERRS,ioos:station:NOAA.NERRS:apaebwq:1,2015-04-10T02:45:00Z,29.7858,-84.8752,1.81,3.4,1111122 
NERRS,ioos:station:NOAA.NERRS:apaebwq:1,2015-04-10T03:45:00Z,29.7858,-84.8752,1.7,3.6,1111122 
NERRS,ioos:station:NOAA.NERRS:apaebwq:1,2015-04-10T04:45:00Z,29.7858,-84.8752,1.63,3.6,1111122 
NERRS,ioos:station:NOAA.NERRS:apaebwq:1,2015-04-10T06:45:00Z,29.7858,-84.8752,1.53,3.5,1111122 
NERRS,ioos:station:NOAA.NERRS:apaebwq:1,2015-04-10T07:45:00Z,29.7858,-84.8752,1.57,3.5,1111122 
NERRS,ioos:station:NOAA.NERRS:apaebwq:1,2015-04-10T08:45:00Z,29.7858,-84.8752,1.64,3.5,1111122 
NERRS,ioos:station:NOAA.NERRS:apaebwq:1,2015-04-10T09:45:00Z,29.7858,-84.8752,1.79,3.5,1111122 
NERRS,ioos:station:NOAA.NERRS:apaebwq:1,2015-04-10T10:45:00Z,29.7858,-84.8752,1.94,3.5,1111122 
NERRS,ioos:station:NOAA.NERRS:apaebwq:1,2015-04-10T12:45:00Z,29.7858,-84.8752,2.08,3.6,1111122 
NERRS,ioos:station:NOAA.NERRS:apaebwq:1,2015-04-10T13:45:00Z,29.7858,-84.8752,2.11,3.7,1111122 
NERRS,ioos:station:NOAA.NERRS:apaebwq:1,2015-04-10T15:45:00Z,29.7858,-84.8752,2.02,3.5,1111122 
NERRS,ioos:station:NOAA.NERRS:apaebwq:1,2015-04-10T16:45:00Z,29.7858,-84.8752,1.98,3.6,1111122 
NERRS,ioos:station:NOAA.NERRS:apaebwq:1,2015-04-10T17:45:00Z,29.7858,-84.8752,1.97,3.6,1111122 
NERRS,ioos:station:NOAA.NERRS:apaebwq:1,2015-04-10T19:45:00Z,29.7858,-84.8752,2.03,3.5,1111122 
NERRS,ioos:station:NOAA.NERRS:apaebwq:1,2015-04-10T21:45:00Z,29.7858,-84.8752,2.14,3.4,1111122 
NERRS,ioos:station:NOAA.NERRS:apaebwq:1,2015-04-10T22:45:00Z,29.7858,-84.8752,2.18,3.4,1111122 
NERRS,ioos:station:NOAA.NERRS:apaebwq:1,2015-04-10T23:45:00Z,29.7858,-84.8752,2.17,3.3,1111122 
NERRS,ioos:station:NOAA.NERRS:apaebwq:1,2015-04-11T00:45:00Z,29.7858,-84.8752,2.11,3.1,1111122 
NERRS,ioos:station:NOAA.NERRS:apaebwq:1,2015-04-11T02:45:00Z,29.7858,-84.8752,1.91,3.2,1111122 
NERRS,ioos:station:NOAA.NERRS:apaebwq:1,2015-04-11T03:45:00Z,29.7858,-84.8752,1.81,3.1,1111122 
NERRS,ioos:station:NOAA.NERRS:apaebwq:1,2015-04-11T04:45:00Z,29.7858,-84.8752,1.71,3.2,1111122 
NERRS,ioos:station:NOAA.NERRS:apaebwq:1,2015-04-11T06:45:00Z,29.7858,-84.8752,1.56,3.3,1111122 
NERRS,ioos:station:NOAA.NERRS:apaebwq:1,2015-04-11T08:45:00Z,29.7858,-84.8752,1.56,3.3,1111122 
NERRS,ioos:station:NOAA.NERRS:apaebwq:1,2015-04-11T09:45:00Z,29.7858,-84.8752,1.67,3.3,1111122 
NERRS,ioos:station:NOAA.NERRS:apaebwq:1,2015-04-11T10:45:00Z,29.7858,-84.8752,1.79,3.2,1111122 
NERRS,ioos:station:NOAA.NERRS:apaebwq:1,2015-04-11T11:45:00Z,29.7858,-84.8752,1.91,3.3,1111122 
NERRS,ioos:station:NOAA.NERRS:apaebwq:1,2015-04-11T12:45:00Z,29.7858,-84.8752,2.0,3.3,1111122 
NERRS,ioos:station:NOAA.NERRS:apaebwq:1,2015-04-11T13:45:00Z,29.7858,-84.8752,2.09,3.1,1111122 
NERRS,ioos:station:NOAA.NERRS:apaebwq:1,2015-04-11T14:45:00Z,29.7858,-84.8752,2.12,3.0,1111122 
NERRS,ioos:station:NOAA.NERRS:apaebwq:1,2015-04-11T16:45:00Z,29.7858,-84.8752,2.02,3.2,1111122 
NERRS,ioos:station:NOAA.NERRS:apaebwq:1,2015-04-11T17:45:00Z,29.7858,-84.8752,1.96,3.3,1111122 
NERRS,ioos:station:NOAA.NERRS:apaebwq:1,2015-04-11T18:45:00Z,29.7858,-84.8752,1.97,3.3,1111122 
NERRS,ioos:station:NOAA.NERRS:apaebwq:1,2015-04-11T19:45:00Z,29.7858,-84.8752,1.94,3.2,1111122 
NERRS,ioos:station:NOAA.NERRS:apaebwq:1,2015-04-11T20:45:00Z,29.7858,-84.8752,1.93,3.2,1111122 
NERRS,ioos:station:NOAA.NERRS:apaebwq:1,2015-04-11T23:45:00Z,29.7858,-84.8752,2.02,3.1,1111122 
NERRS,ioos:station:NOAA.NERRS:apaebwq:1,2015-04-12T00:45:00Z,29.7858,-84.8752,2.06,3.1,1111122 
NERRS,ioos:station:NOAA.NERRS:apaebwq:1,2015-04-12T01:45:00Z,29.7858,-84.8752,2.04,3.1,1111122 
NERRS,ioos:station:NOAA.NERRS:apaebwq:1,2015-04-12T02:45:00Z,29.7858,-84.8752,1.95,3.1,1111122 
NERRS,ioos:station:NOAA.NERRS:apaebwq:1,2015-04-12T03:45:00Z,29.7858,-84.8752,1.85,3.2,1111122 
NERRS,ioos:station:NOAA.NERRS:apaebwq:1,2015-04-12T04:45:00Z,29.7858,-84.8752,1.78,3.2,1111122 
NERRS,ioos:station:NOAA.NERRS:apaebwq:1,2015-04-12T06:45:00Z,29.7858,-84.8752,1.62,3.2,1111122 
NERRS,ioos:station:NOAA.NERRS:apaebwq:1,2015-04-12T07:45:00Z,29.7858,-84.8752,1.56,3.3,1111122 
NERRS,ioos:station:NOAA.NERRS:apaebwq:1,2015-04-12T08:45:00Z,29.7858,-84.8752,1.51,3.3,1111122 
NERRS,ioos:station:NOAA.NERRS:apaebwq:1,2015-04-12T09:45:00Z,29.7858,-84.8752,1.54,3.2,1111122 
NERRS,ioos:station:NOAA.NERRS:apaebwq:1,2015-04-12T10:45:00Z,29.7858,-84.8752,1.65,3.2,1111122 
NERRS,ioos:station:NOAA.NERRS:apaebwq:1,2015-04-12T11:45:00Z,29.7858,-84.8752,1.79,3.2,1111122 
NERRS,ioos:station:NOAA.NERRS:apaebwq:1,2015-04-12T12:45:00Z,29.7858,-84.8752,1.91,3.2,1111122 
NERRS,ioos:station:NOAA.NERRS:apaebwq:1,2015-04-12T13:45:00Z,29.7858,-84.8752,2.02,3.1,1111122 
NERRS,ioos:station:NOAA.NERRS:apaebwq:1,2015-04-12T16:45:00Z,29.7858,-84.8752,2.09,3.0,1111122 
NERRS,ioos:station:NOAA.NERRS:apaebwq:1,2015-04-12T18:45:00Z,29.7858,-84.8752,1.98,3.2,1111122 
NERRS,ioos:station:NOAA.NERRS:apaebwq:1,2015-04-12T19:45:00Z,29.7858,-84.8752,1.95,3.2,1111122 
NERRS,ioos:station:NOAA.NERRS:apaebwq:1,2015-04-12T21:45:00Z,29.7858,-84.8752,1.92,3.1,1111122 
NERRS,ioos:station:NOAA.NERRS:apaebwq:1,2015-04-12T22:45:00Z,29.7858,-84.8752,1.9,3.1,1111122 
NERRS,ioos:station:NOAA.NERRS:apaebwq:1,2015-04-13T00:45:00Z,29.7858,-84.8752,2.03,3.2,1111122 
NERRS,ioos:station:NOAA.NERRS:apaebwq:1,2015-04-13T01:45:00Z,29.7858,-84.8752,2.11,3.0,1111122 
NERRS,ioos:station:NOAA.NERRS:apaebwq:1,2015-04-13T02:45:00Z,29.7858,-84.8752,2.09,3.0,1111122 
NERRS,ioos:station:NOAA.NERRS:apaebwq:1,2015-04-13T03:45:00Z,29.7858,-84.8752,2.02,3.1,1111122 
NERRS,ioos:station:NOAA.NERRS:apaebwq:1,2015-04-13T04:45:00Z,29.7858,-84.8752,1.94,3.1,1111122 
NERRS,ioos:station:NOAA.NERRS:apaebwq:1,2015-04-13T06:45:00Z,29.7858,-84.8752,1.8,3.0,1111122 
NERRS,ioos:station:NOAA.NERRS:apaebwq:1,2015-04-13T07:45:00Z,29.7858,-84.8752,1.73,3.2,1111122 
NERRS,ioos:station:NOAA.NERRS:apaebwq:1,2015-04-13T08:45:00Z,29.7858,-84.8752,1.66,3.2,1111122 
NERRS,ioos:station:NOAA.NERRS:apaebwq:1,2015-04-13T09:45:00Z,29.7858,-84.8752,1.62,3.3,1111122 
NERRS,ioos:station:NOAA.NERRS:apaebwq:1,2015-04-13T10:45:00Z,29.7858,-84.8752,1.65,3.2,1111122 
NERRS,ioos:station:NOAA.NERRS:apaebwq:1,2015-04-13T11:45:00Z,29.7858,-84.8752,1.75,3.2,1111122 
NERRS,ioos:station:NOAA.NERRS:apaebwq:1,2015-04-13T12:45:00Z,29.7858,-84.8752,1.86,3.1,1111122 
NERRS,ioos:station:NOAA.NERRS:apaebwq:1,2015-04-13T13:45:00Z,29.7858,-84.8752,1.97,3.4,1111122 
NERRS,ioos:station:NOAA.NERRS:apaebwq:1,2015-04-13T14:45:00Z,29.7858,-84.8752,2.09,3.2,1111122 
NERRS,ioos:station:NOAA.NERRS:apaebwq:1,2015-04-13T15:45:00Z,29.7858,-84.8752,2.17,4.0,1111122 